Location: Fremont
(37.5480°N, 121.9880°W)
Time: 13:38:34
(UTC-07:00)

Daily predictions for brighter satellites

Satellite Brightness Start Highest point End
(mag) Time Altitude Azimuth Time Altitude Azimuth Time Altitude Azimuth
Meteor 1-24 Rocket 3.8 19:09:12 10° N 19:14:46 81° W 19:20:07 10° S
Okean 3 Rocket 4.1 19:12:20 10° NNW 19:16:51 67° W 19:21:20 10° S
Cosmos 1544 4.0 19:16:09 10° SSE 19:19:26 29° E 19:22:42 10° NNE
SAR-Lupe-4 4.0 19:16:30 10° SE 19:19:51 41° ENE 19:23:15 10° N
USA 215 4.0 19:16:30 10° ENE 19:22:09 30° SE 19:27:45 10° S
ATLAS 5 CENTAUR R/B 2.8 19:17:34 10° SW 19:22:11 49° NW 19:27:11 10° NNE
ATLAS CENTAUR R/B 3.7 19:24:57 10° SW 19:29:29 72° NW 19:43:47 10° NE
Resurs 01 Rocket 2.5 19:26:31 10° SE 19:30:20 29° ENE 19:34:10 10° N
SJ-6B 2.9 19:29:57 10° SSE 19:33:52 57° ENE 19:37:53 10° N
COSMO-SKYMED 1 3.4 19:31:12 10° N 19:35:29 57° WNW 19:39:43 10° SSW
Cosmos 1484 Rocket 3.3 19:32:26 10° S 19:36:15 64° W 19:40:09 10° NNW
SL-8 R/B 4.2 19:32:03 10° WSW 19:36:46 58° NNW 19:41:29 10° NE
Meteor 2-12 Rocket 4.4 19:30:49 10° S 19:36:53 65° E 19:42:58 10° NNE
METEOR-M 4.4 19:33:03 10° SE 19:38:08 46° ENE 19:43:14 10° N
Cosmos 1076 Rocket 3.8 19:36:01 10° NNW 19:40:22 73° W 19:44:42 10° S
ALOS 3.5 19:37:03 11° ESE 19:40:25 22° ENE 19:43:59 10° NNE
Meteor 1-29 3.7 19:42:52 10° NE 19:46:01 30° E 19:49:07 10° SSE
Cosmos 2151 4.4 19:44:34 10° NNE 19:47:29 18° ENE 19:47:52 18° E
Cosmos-2242 3.1 19:45:05 10° S 19:49:26 83° W 19:53:52 10° N
ISS -1.9 19:47:10 10° WSW 19:50:12 35° NW 19:53:14 10° NE
ASTEX 1 4.0 19:46:49 10° NNE 19:51:12 32° E 19:55:32 10° SSE
Cosmos 1758 3.9 19:47:41 10° SSW 19:51:44 64° W 19:55:49 10° N
Cosmos 1766 Rocket 4.0 19:47:36 10° NNW 19:51:56 66° W 19:56:12 10° S
GP-B 4.3 19:49:21 10° NE 19:52:39 20° E 19:52:51 20° E
Nadezhda 4 Rocket 3.9 19:51:15 10° N 19:57:29 67° E 20:03:36 10° SSE
FENGYUN 3A 4.2 19:55:03 12° SE 19:59:27 36° ENE 20:04:21 10° N
GPS 2-04 Rocket1 2.4 19:57:46 10° WSW 20:01:10 63° S 20:02:34 32° ESE
Meteor 1-28 Rocket 4.1 20:00:30 10° N 20:04:07 51° WNW 20:07:42 10° SSW
CZ-2D R/B 4.2 20:08:06 29° ENE 20:08:06 29° ENE 20:11:22 10° NNE
Cosmos 1092 Rocket 4.0 20:02:27 10° N 20:08:35 59° E 20:14:37 10° SSE
Cosmos 1346 4.1 20:08:31 10° NNW 20:11:24 47° W 20:14:15 10° S
Cosmos 2251 Rocket 3.8 20:08:06 10° S 20:12:58 41° ESE 20:17:51 10° NNE
Cosmos 1328 4.5 20:09:42 10° NNE 20:13:02 33° ENE 20:13:02 33° ENE
H-2A R/B 3.4 20:16:34 35° ENE 20:16:34 35° ENE 20:19:46 10° N
CENTAUR R/B 2.5 20:12:03 10° SW 20:18:01 82° WNW 20:24:47 10° NNE
AVUM R/B 2.8 20:15:18 10° SSW 20:18:14 86° WNW 20:18:40 61° NNE
Cosmos 2026 Rocket 4.4 20:12:33 10° N 20:18:14 38° ENE 20:20:31 29° ESE
FREGAT/IRIS 4.3 20:16:29 10° SSW 20:19:21 35° W 20:22:14 10° NNW
Helios 1A 3.0 20:18:18 10° S 20:22:30 82° WSW 20:26:44 10° NNW
Cosmos 1634 Rocket 3.9 20:16:57 10° S 20:23:06 66° E 20:29:15 10° NNE
Cosmos 1842 Rocket 3.7 20:18:52 10° SSW 20:23:11 74° W 20:27:32 10° N
Cosmos 1655 Rocket 4.4 20:17:34 10° N 20:23:19 38° ENE 20:24:52 33° ESE
Cosmos 1500 Rocket 3.5 20:18:58 10° N 20:23:26 88° WSW 20:27:54 10° S
Cosmos 1943 Rocket 3.0 20:20:43 10° N 20:25:39 30° ENE 20:25:56 30° ENE
OAO 3 Rocket 4.1 20:23:55 10° W 20:28:20 39° SSW 20:29:49 30° SSE
Cosmos 839 Rocket 4.1 20:26:06 10° NNW 20:33:32 69° ENE 20:36:20 35° SE
Cosmos 1733 3.7 20:31:44 10° SSW 20:35:32 59° W 20:39:21 10° N
Spot 2 Rocket 4.1 20:30:46 10° S 20:35:41 55° W 20:40:39 10° NNW
Cosmos 1943 3.6 20:31:49 10° SSW 20:37:23 63° WNW 20:42:59 10° NNE
Cosmos 2369 Rocket 2.1 20:32:01 10° NNW 20:37:43 89° NE 20:40:36 31° SSE
Cosmos 2195 Rocket 4.4 20:34:29 10° N 20:40:50 69° E 20:44:27 27° SSE
Cosmos 1674 4.0 20:39:39 10° NNW 20:43:19 41° W 20:46:57 10° SSW
CZ-4B DEB 4.2 20:46:01 35° NNW 20:46:01 35° NNW 20:48:04 10° NNW
Helios 1B rocket 4.2 20:45:17 10° N 20:48:57 32° WNW 20:52:37 10° SW
Cosmos 2263 4.1 20:46:25 10° NNW 20:52:13 85° ENE 20:53:27 57° SSE
SL-24 R/B - RUBIN 2 4.3 20:53:24 10° NNW 21:00:03 76° ENE 21:00:45 68° ESE
USA 215 3.5 21:00:26 18° NE 21:05:23 68° NW 21:11:50 10° WSW
Resurs 01 Rocket 3.9 21:03:14 10° SSW 21:06:46 23° W 21:10:18 10° NW
ERS-1 Rocket 4.5 21:16:05 27° N 21:16:05 27° N 21:18:24 10° N
ALOS 3.8 21:15:36 23° SW 21:17:37 33° W 21:21:52 10° NNW
Cosmos 1943 Rocket 4.0 22:04:22 10° NW 22:07:28 27° WNW 22:07:28 27° WNW
